Wind_Speed
15 15 16 16 16 15 14 15 15 15 16 17 17 18 16 15 15 15 15 15 15 14 14 15 15 15 16 16 16 16 16 16 16 16 16 16 17 18 18 19 19 19 19 19
16 16 17 17 16 16 16 17 16 17 17 18 18 18 18 17 16 16 16 16 16 16 16 16 16 16 16 17 17 17 17 17 17 17 17 17 18 19 19 20 20 20 20 19
18 18 19 19 18 18 18 19 19 19 19 20 20 20 20 19 18 17 17 17 17 17 18 18 17 17 18 18 18 18 18 19 19 19 19 19 19 20 20 20 21 21 21 20
19 19 21 21 20 20 20 20 20 21 20 20 21 21 20 20 20 19 19 18 18 19 19 19 19 19 19 20 20 20 20 20 20 20 20 20 21 21 21 22 22 22 22 22
20 21 22 22 22 21 21 21 20 21 22 21 21 22 21 21 22 21 21 20 20 20 20 20 21 21 21 21 21 21 21 21 21 21 21 21 22 22 23 24 23 23 23 23
23 23 24 23 23 22 23 23 22 22 22 23 22 22 22 21 22 23 23 23 22 22 22 22 23 23 23 22 22 22 22 22 22 22 23 23 23 23 24 23 24 24 24 24
25 26 26 26 25 24 25 25 24 23 23 24 25 24 24 23 24 24 24 24 24 24 24 24 24 24 24 24 24 23 23 23 23 23 23 24 24 25 24 24 24 24 24 25
26 26 27 27 26 26 27 27 26 26 26 26 27 27 26 26 25 25 25 25 26 26 26 26 26 26 26 26 25 25 25 24 25 24 24 25 25 25 25 25 25 25 25 26
27 27 28 28 28 28 29 29 28 28 28 28 28 28 28 27 26 26 26 26 27 27 27 27 27 27 27 27 27 26 26 25 25 26 26 26 26 25 25 25 26 26 26 26
29 29 29 30 30 29 30 30 30 29 29 30 29 29 29 28 28 27 27 27 27 27 27 27 28 27 27 27 27 27 27 27 26 27 27 27 27 26 26 26 26 26 27 27
31 31 31 31 32 31 31 32 32 31 31 31 31 30 30 29 29 29 28 28 28 28 28 27 27 27 27 27 28 28 28 28 28 28 28 27 27 27 27 27 27 27 27 27
32 32 32 33 33 33 32 33 33 32 31 31 32 32 31 31 30 30 30 29 29 28 28 28 28 27 27 28 29 29 28 28 28 28 28 28 28 28 28 29 29 29 29 28
33 33 33 34 34 34 33 33 34 33 32 32 32 32 31 31 31 30 30 30 29 29 29 29 29 29 29 29 29 29 29 29 28 29 28 28 28 28 29 29 30 30 30 30
33 33 33 33 34 34 34 35 34 33 33 33 32 32 32 31 31 30 30 30 30 30 30 30 30 30 30 30 30 30 30 29 29 29 29 29 30 30 30 30 30 30 30 30
33 34 34 34 34 35 35 35 34 34 33 33 33 33 33 32 32 32 31 31 31 31 31 31 31 31 31 31 31 31 31 31 31 30 29 30 30 30 31 31 31 30 30 30
34 34 34 34 34 34 34 34 34 33 33 33 33 33 33 33 33 32 32 32 31 31 32 32 31 31 31 31 31 30 31 31 32 31 30 31 31 31 31 31 31 30 30 30
34 34 34 34 33 33 33 33 33 33 33 33 33 33 33 32 32 32 31 31 32 32 33 33 32 32 31 31 31 31 30 31 31 32 31 31 31 31 31 31 31 31 30 30
35 35 35 34 34 33 33 33 33 32 32 33 33 33 32 32 32 32 32 33 33 33 33 32 32 32 32 31 31 31 31 31 31 31 32 31 31 31 31 31 31 31 30 30
34 35 35 35 35 34 34 33 33 32 32 32 32 31 31 31 32 32 32 33 34 33 33 33 32 33 33 32 32 32 32 32 32 32 31 31 31 31 32 31 31 31 30 30
34 34 35 35 35 35 34 34 33 33 33 33 33 32 32 32 32 32 33 33 33 34 33 34 34 33 34 34 34 34 33 33 33 33 32 31 30 31 31 31 31 31 30 30
34 34 34 35 35 35 35 35 34 34 33 33 34 33 33 33 33 33 33 33 33 33 34 34 34 34 34 34 34 34 34 34 34 34 33 32 32 32 31 31 31 31 30 30
34 34 34 34 34 33 33 34 34 34 34 34 34 34 33 33 33 33 33 34 34 34 34 35 35 35 35 35 34 34 34 34 35 34 33 33 32 32 32 33 32 31 30 30
34 34 34 33 33 32 32 33 34 34 33 33 33 34 34 34 34 34 34 34 34 35 35 34 35 35 35 35 35 35 34 34 35 34 33 33 32 32 33 33 32 31 30 30
32 32 33 33 33 32 32 32 33 33 34 33 34 34 34 34 35 35 35 35 35 35 35 35 35 35 35 35 35 34 34 34 34 33 33 33 32 33 33 32 31 31 30 30
32 32 32 32 32 31 31 31 32 32 33 33 34 34 34 35 35 35 35 35 35 35 35 35 35 35 35 35 34 34 34 34 33 33 33 32 33 33 32 31 32 31 31 31
31 32 31 31 31 31 31 31 31 32 32 33 33 33 34 34 35 35 35 35 35 35 35 35 34 34 34 34 34 34 34 34 33 33 33 33 33 33 32 31 30 31 31 31
32 32 31 31 31 31 32 32 32 32 33 33 33 34 34 34 34 35 35 35 35 35 34 34 34 34 34 34 34 34 33 33 33 33 33 33 33 33 32 31 30 30 31 31
Wind_Direction
266 265 268 269 269 267 264 268 270 268 268 274 278 281 283 285 286 286 285 282 282 284 284 285 285 287 287 286 286 288 290 291 291 292 288 284 284 283 283 284 285 286 288 288
268 269 268 268 268 267 266 266 270 271 271 274 276 277 280 282 284 285 284 280 281 283 283 285 286 287 287 288 287 288 289 289 289 290 288 285 284 283 283 283 283 285 286 286
272 271 271 269 269 271 269 269 269 272 274 275 275 276 276 279 280 281 281 281 280 280 282 286 287 288 288 288 286 286 287 287 288 288 288 285 284 284 284 283 284 284 285 286
272 272 272 275 274 273 273 273 276 274 276 277 277 278 277 277 280 281 280 281 280 280 282 284 286 287 287 287 286 286 286 286 286 286 287 287 286 285 284 284 284 283 284 284
270 273 274 274 275 274 273 274 275 275 275 278 279 278 276 276 278 279 279 279 280 280 281 283 285 287 286 285 285 286 286 286 286 286 286 287 287 286 286 284 283 283 283 284
269 272 274 275 276 275 274 274 274 275 276 277 278 278 279 278 278 278 277 278 279 279 280 282 284 285 285 285 285 285 286 286 285 286 286 286 286 287 286 284 283 283 283 284
269 271 272 273 275 274 272 273 273 275 275 275 276 278 280 279 278 277 277 277 278 278 278 280 282 283 284 284 284 284 283 283 283 285 287 288 287 287 285 283 283 284 283 284
269 270 270 272 273 273 271 270 272 274 275 276 276 278 280 280 279 278 277 277 277 278 278 279 281 282 283 283 282 282 282 281 282 284 287 289 288 286 284 282 282 284 284 284
268 268 269 270 271 272 271 271 272 274 275 275 275 276 278 278 278 279 279 278 278 278 278 279 280 282 283 282 281 281 281 281 280 283 286 287 287 286 284 283 283 284 283 285
265 266 268 268 268 270 271 270 271 273 274 274 275 276 276 276 276 278 279 280 280 280 279 279 280 281 283 282 279 278 279 280 279 283 286 286 285 284 286 285 284 285 284 286
266 267 268 268 269 270 270 269 269 271 273 274 274 275 276 275 276 278 279 280 280 281 280 279 279 281 281 281 279 278 279 281 281 282 286 286 285 283 284 284 284 286 287 288
267 267 268 269 270 272 271 270 270 271 273 273 274 274 275 276 276 277 277 278 278 280 280 279 281 281 281 281 280 279 279 281 282 281 284 286 283 282 283 285 284 285 286 286
266 267 267 268 269 271 271 270 270 271 271 272 273 273 274 275 275 276 276 277 278 279 279 280 281 281 281 280 281 280 280 280 281 282 283 285 284 281 283 285 284 284 285 285
266 267 267 268 269 270 270 269 270 271 271 271 272 273 274 274 274 274 275 275 276 278 279 280 281 281 281 279 279 280 281 281 281 282 282 283 283 282 282 283 285 285 285 285
266 266 267 269 270 271 271 270 270 271 271 271 272 273 274 274 274 274 274 274 275 277 279 281 282 282 280 280 279 279 280 281 281 281 281 282 282 282 283 283 283 284 284 284
266 266 267 269 272 272 271 270 270 271 270 271 272 274 274 274 274 274 273 273 274 277 279 280 281 282 281 280 280 280 280 280 280 281 280 281 283 283 283 284 284 284 284 284
265 267 269 272 272 272 272 272 273 272 272 272 273 273 273 274 273 272 272 273 275 276 279 279 279 280 282 281 279 279 280 280 279 279 279 281 282 283 283 284 284 284 284 285
266 267 270 272 272 272 271 272 273 274 273 272 272 271 271 271 272 272 272 273 275 276 278 278 279 279 280 282 280 278 279 280 281 281 280 280 282 284 285 285 284 284 284 283
268 269 270 271 271 271 270 271 272 273 274 274 274 273 272 272 272 272 272 273 275 276 277 276 278 279 279 281 281 279 279 279 279 281 282 281 282 284 285 285 285 284 283 282
269 269 270 270 270 270 270 270 271 272 273 274 275 274 274 273 274 274 273 274 275 276 275 276 277 278 279 280 281 280 278 277 277 279 281 280 281 282 284 286 286 284 283 283
269 268 269 270 271 270 270 270 270 272 273 274 275 275 275 274 274 275 275 275 276 277 276 276 277 277 278 279 280 279 279 278 277 279 280 281 281 281 283 285 285 284 283 283
268 268 269 270 271 270 269 269 269 270 271 273 274 275 275 274 275 275 275 276 277 277 277 277 278 278 278 278 278 279 280 279 278 279 281 282 281 282 283 284 284 283 281 281
270 269 269 270 270 270 270 269 269 270 271 272 273 274 274 274 275 275 276 277 278 278 279 279 278 278 278 278 278 279 280 279 278 278 279 280 281 282 283 283 283 281 280 280
269 270 270 271 271 270 271 270 269 270 271 271 273 274 274 275 276 275 276 277 278 279 279 278 277 277 277 278 278 278 278 278 278 278 279 280 281 283 283 282 281 279 279 279
268 268 269 270 271 271 270 271 271 271 272 273 274 275 276 276 276 276 277 278 278 278 278 277 276 276 276 276 277 277 277 276 276 277 277 279 280 282 281 280 280 278 278 279
268 268 269 270 270 270 270 272 273 274 275 275 275 277 277 278 278 278 278 278 278 277 277 276 277 276 276 276 276 277 276 275 275 276 276 277 279 280 280 281 281 280 280 279
268 268 269 270 270 269 270 272 273 274 275 275 276 277 278 279 280 279 278 278 278 277 277 276 276 275 274 275 276 276 276 275 274 274 275 277 279 280 281 280 280 281 281 281
Height
5830 5830 5830 5830 5830 5830 5831 5831 5831 5832 5831 5831 5829 5829 5828 5828 5827 5826 5826 5825 5824 5824 5824 5823 5823 5822 5822 5821 5821 5820 5820 5819 5819 5818 5817 5817 5816 5816 5816 5815 5815 5814 5813 5812
5826 5826 5826 5826 5826 5826 5827 5827 5827 5827 5827 5826 5826 5825 5824 5824 5823 5823 5822 5821 5821 5820 5820 5819 5819 5818 5818 5817 5816 5816 5816 5815 5814 5813 5813 5812 5812 5811 5810 5810 5809 5809 5808 5807
5821 5821 5820 5821 5823 5822 5822 5822 5822 5822 5823 5821 5821 5821 5820 5819 5818 5819 5818 5818 5817 5816 5816 5815 5814 5814 5813 5812 5812 5811 5810 5810 5809 5808 5807 5807 5806 5806 5805 5804 5804 5803 5802 5802
5816 5817 5816 5819 5817 5817 5817 5817 5817 5817 5816 5816 5816 5816 5815 5814 5813 5813 5813 5813 5812 5812 5811 5811 5810 5809 5808 5807 5806 5806 5805 5804 5804 5803 5802 5801 5800 5799 5799 5798 5797 5797 5796 5795
5811 5810 5810 5812 5811 5811 5811 5811 5811 5811 5810 5810 5810 5810 5809 5809 5808 5807 5807 5807 5807 5806 5806 5805 5804 5803 5802 5801 5800 5800 5799 5798 5798 5796 5795 5794 5793 5792 5791 5791 5790 5790 5789 5788
5805 5804 5804 5806 5805 5805 5806 5805 5805 5804 5804 5804 5803 5804 5804 5803 5802 5801 5801 5801 5801 5800 5800 5799 5798 5797 5796 5795 5794 5794 5793 5792 5791 5790 5789 5788 5787 5785 5784 5783 5782 5782 5782 5781
5798 5797 5797 5798 5798 5799 5800 5800 5798 5798 5798 5798 5797 5797 5797 5796 5795 5795 5794 5794 5794 5793 5793 5792 5791 5791 5790 5789 5788 5787 5786 5785 5784 5784 5782 5781 5779 5778 5777 5776 5775 5774 5774 5773
5791 5790 5792 5790 5791 5792 5792 5791 5791 5791 5791 5790 5790 5789 5789 5789 5788 5788 5787 5787 5786 5786 5785 5785 5784 5783 5782 5781 5780 5779 5779 5778 5777 5776 5775 5774 5772 5771 5770 5769 5768 5766 5765 5765
5784 5785 5784 5783 5782 5783 5783 5783 5783 5783 5783 5783 5783 5782 5782 5781 5781 5780 5780 5779 5778 5778 5777 5776 5775 5775 5774 5773 5772 5772 5771 5770 5770 5769 5768 5766 5765 5763 5762 5761 5760 5759 5758 5757
5775 5775 5775 5775 5775 5775 5775 5775 5775 5775 5775 5775 5775 5774 5774 5773 5773 5772 5772 5771 5770 5769 5769 5768 5767 5766 5766 5765 5764 5763 5763 5762 5762 5761 5760 5758 5757 5756 5755 5754 5753 5752 5750 5749
5767 5767 5767 5766 5766 5766 5766 5766 5766 5766 5766 5766 5766 5765 5765 5764 5764 5764 5763 5762 5761 5761 5760 5759 5759 5758 5757 5756 5755 5755 5754 5754 5753 5753 5752 5751 5749 5748 5747 5746 5745 5744 5743 5741
5758 5759 5758 5757 5757 5757 5757 5757 5757 5757 5757 5756 5756 5756 5755 5755 5755 5755 5754 5753 5753 5752 5752 5751 5750 5750 5749 5748 5747 5746 5746 5745 5744 5744 5743 5742 5741 5740 5739 5738 5737 5735 5734 5732
5748 5748 5748 5748 5748 5748 5748 5747 5747 5747 5747 5747 5747 5746 5746 5746 5746 5745 5745 5744 5744 5743 5743 5742 5742 5741 5740 5739 5739 5738 5737 5736 5736 5735 5735 5734 5733 5732 5731 5730 5728 5726 5725 5723
5739 5739 5738 5739 5739 5738 5738 5738 5737 5737 5737 5737 5737 5737 5736 5736 5736 5736 5736 5735 5735 5735 5734 5733 5733 5732 5731 5730 5730 5729 5728 5728 5727 5726 5726 5725 5724 5723 5722 5721 5719 5717 5716 5714
5730 5729 5729 5729 5729 5729 5728 5728 5728 5728 5728 5727 5727 5726 5726 5726 5726 5726 5726 5726 5726 5725 5725 5724 5724 5723 5722 5721 5720 5720 5719 5718 5717 5717 5716 5716 5714 5713 5712 5711 5710 5708 5707 5705
5720 5720 5720 5720 5720 5719 5719 5718 5718 5718 5718 5717 5717 5716 5716 5715 5715 5715 5715 5716 5716 5716 5716 5715 5715 5714 5712 5712 5711 5710 5710 5709 5708 5707 5706 5706 5705 5704 5703 5701 5700 5699 5697 5696
5710 5711 5711 5710 5710 5709 5709 5709 5708 5708 5707 5707 5707 5706 5706 5705 5705 5705 5706 5706 5706 5706 5706 5705 5705 5704 5703 5702 5701 5701 5700 5699 5698 5698 5697 5696 5695 5694 5693 5692 5691 5689 5688 5686
5700 5701 5701 5701 5700 5700 5699 5699 5699 5698 5697 5697 5697 5696 5696 5696 5696 5696 5697 5697 5697 5697 5696 5695 5695 5694 5693 5693 5692 5691 5690 5689 5688 5688 5687 5686 5686 5685 5683 5682 5681 5679 5678 5677
5690 5690 5691 5690 5690 5690 5690 5690 5689 5688 5688 5687 5687 5687 5686 5686 5686 5686 5686 5687 5687 5687 5687 5686 5685 5684 5684 5683 5682 5681 5680 5679 5679 5678 5677 5676 5675 5674 5673 5672 5671 5669 5668 5667
5680 5680 5680 5680 5680 5680 5680 5680 5679 5679 5678 5678 5677 5677 5677 5677 5677 5676 5676 5676 5677 5677 5676 5675 5675 5674 5674 5673 5672 5671 5670 5669 5668 5668 5667 5666 5665 5664 5663 5662 5661 5659 5658 5657
5669 5669 5670 5670 5670 5669 5669 5669 5669 5669 5668 5668 5667 5667 5667 5667 5667 5666 5666 5666 5667 5666 5665 5664 5664 5664 5663 5662 5661 5660 5659 5658 5658 5657 5657 5656 5655 5654 5653 5652 5651 5650 5648 5648
5659 5659 5659 5659 5659 5659 5659 5659 5658 5658 5658 5658 5657 5657 5656 5656 5656 5656 5656 5656 5656 5655 5654 5654 5653 5653 5652 5651 5650 5649 5649 5648 5647 5647 5646 5645 5645 5644 5643 5642 5641 5639 5638 5637
5649 5649 5649 5649 5649 5648 5648 5648 5648 5648 5647 5647 5647 5647 5646 5646 5646 5645 5645 5645 5644 5644 5643 5643 5642 5641 5640 5639 5639 5638 5638 5637 5637 5636 5636 5635 5634 5633 5632 5631 5630 5629 5628 5628
5639 5639 5639 5639 5639 5638 5638 5638 5638 5638 5637 5637 5636 5636 5635 5635 5635 5634 5634 5634 5633 5632 5632 5631 5631 5630 5629 5628 5628 5627 5627 5626 5626 5625 5625 5625 5624 5623 5622 5621 5620 5619 5618 5618
5629 5629 5629 5629 5629 5628 5628 5628 5628 5627 5627 5627 5626 5625 5625 5624 5623 5623 5622 5622 5621 5621 5620 5620 5619 5618 5617 5617 5617 5616 5616 5616 5615 5615 5615 5614 5614 5612 5611 5610 5609 5609 5608 5607
5620 5620 5619 5619 5619 5619 5619 5618 5618 5617 5617 5616 5616 5615 5614 5613 5612 5612 5611 5611 5610 5609 5609 5608 5608 5607 5606 5606 5606 5605 5605 5604 5604 5604 5604 5603 5602 5602 5601 5600 5599 5598 5598 5597
5609 5609 5609 5609 5609 5609 5609 5608 5608 5607 5607 5606 5605 5604 5603 5603 5602 5601 5600 5599 5599 5598 5598 5597 5597 5596 5596 5595 5594 5594 5594 5593 5593 5593 5593 5592 5592 5591 5590 5589 5589 5588 5587 5586